Content
SEND FEEDBACK

Daily
Averages
Monthly
Summary
United States of America

MANGILAO, GUAM


Home > North America > United States > Guam
Elevation: 60 feet     Latitude: 13 27N     Longitude: 144 49E

WEATHER
 
SELECT A DAY
Number of Records: 342,579;   Date Range: 1/1/95 - 9/18/14
 
SHARE

PRINT THIS DATA

[ ← Previous Day ]
WEATHER ALMANAC - JULY 20, 2013
[ Next Day → ]
[ °C ]   °F
Weather ElementAverageHighLow
Temperature79.9 °F86 °F (11:55 am)76.1 °F (4:55 am)
Dewpoint77.1 °F80.6 °F (1:02 pm)70.7 °F (7:55 pm)
Humidity91.3 %100 % (6:36 pm)80 % (7:55 pm)
Barometer29.78 in29.83 in (9:55 pm)29.75 in (3:55 pm)
Wind Speed4.2 mph9.2 mph (9:28 am)
Weather ElementAverage
Visibility6.6 mi
Wind DirectionESE (118.6 °)

Weather ElementTotal
Precipitation0.46 in
Cooling Degree Days16.1 (Base 65)
Growing Degree Days31.1 (Base 50)
Averaged from 59 records on July 20, 2013
WEATHER CONDITIONS BREAKOUT
WIND DIRECTION BREAKOUT
WEATHER BY HOUR - JULY 20, 2013
[ °C ]   °F
Local TimeTemperatureDewpointHumidityBarometerVisibilityWind DirectionWind SpeedGust SpeedPrecipitationEventsConditions
1:55 AM77.9 °F75.7 °F93 %29.80 in10.0 miSouth (170°)3.5 mphScattered Clouds
2:55 AM77.4 °F75.9 °F95 %29.77 in10.0 miWNW (290°)3.5 mphClear
3:55 AM77.2 °F75.0 °F93 %29.78 in10.0 miCalmClear
4:55 AM76.1 °F71.1 °F84 %29.78 in10.0 miCalmClear
5:55 AM76.8 °F72.3 °F86 %29.78 in10.0 miCalmClear
6:55 AM78.6 °F74.3 °F87 %29.79 in10.0 miCalmClear
7:55 AM82.4 °F77.9 °F86 %29.80 in10.0 miESE (110°)4.6 mphClear
8:55 AM82.2 °F79.0 °F90 %29.81 in10.0 miESE (120°)5.8 mphPartly Cloudy
9:28 AM82.4 °F78.8 °F89 %29.82 in10.0 miESE (120°)9.2 mphLight Drizzle
9:32 AM82.4 °F78.8 °F89 %29.82 in8.0 miSE (130°)9.2 mphLight Drizzle
9:36 AM82.4 °F78.8 °F89 %29.82 in8.0 miSE (140°)8.1 mphLight Drizzle
9:41 AM82.4 °F78.8 °F89 %29.81 in9.0 miSE (140°)8.1 mphMostly Cloudy
9:55 AM83.1 °F79.5 °F89 %29.81 in10.0 miESE (110°)9.2 mph0.00 inMostly Cloudy
10:55 AM84.7 °F79.7 °F85 %29.80 in10.0 miEast (100°)6.9 mphScattered Clouds
11:55 AM86.0 °F79.7 °F81 %29.79 in10.0 miESE (110°)9.2 mphPartly Cloudy
12:55 PM85.6 °F80.4 °F84 %29.78 in10.0 miVariable4.6 mphMostly Cloudy
1:02 PM84.2 °F80.6 °F89 %29.78 in10.0 miWSW (250°)8.1 mphMostly Cloudy
1:55 PM83.3 °F79.7 °F89 %29.77 in10.0 miESE (110°)6.9 mphTornadoFunnel Cloud
1:56 PM86.0 °F80.6 °F84 %29.77 in10.0 miESE (110°)8.1 mphTornadoFunnel Cloud
2:55 PM84.6 °F80.1 °F86 %29.76 in10.0 miESE (120°)9.2 mphScattered Clouds
3:55 PM84.9 °F78.6 °F81 %29.75 in10.0 miESE (120°)4.6 mphPartly Cloudy
4:26 PM84.2 °F78.8 °F84 %29.76 in10.0 miSE (130°)6.9 mphMostly Cloudy
4:30 PM82.4 °F78.8 °F89 %29.75 in10.0 miESE (120°)4.6 mphMostly Cloudy
4:38 PM82.4 °F78.8 °F89 %29.75 in10.0 miSSE (150°)4.6 mphMostly Cloudy
4:45 PM82.4 °F78.8 °F89 %29.76 in10.0 miWSW (250°)4.6 mphMostly Cloudy
4:52 PM82.4 °F78.8 °F89 %29.76 in10.0 miWSW (240°)8.1 mphMostly Cloudy
4:55 PM81.7 °F78.8 °F91 %29.76 in10.0 miWSW (250°)9.2 mphMostly Cloudy
5:40 PM80.6 °F77.0 °F89 %29.77 in9.0 miCalmRainLight Rain
5:46 PM80.6 °F77.0 °F89 %29.78 in2.5 miCalmRainRain
5:47 PM78.8 °F77.0 °F94 %29.78 in1.8 miENE (70°)3.5 mphRainRain
5:48 PM78.8 °F77.0 °F94 %29.77 in1.2 miENE (70°)4.6 mphRainRain
5:49 PM78.8 °F77.0 °F94 %29.77 in1.0 miCalmRainHeavy Rain
5:55 PM78.3 °F77.4 °F97 %29.77 in1.0 miCalm0.15 inRainRain
5:56 PM78.8 °F77.0 °F94 %29.77 in1.2 miCalmRainLight Rain
5:57 PM78.8 °F77.0 °F94 %29.78 in1.5 miCalmRainLight Rain
5:58 PM78.8 °F77.0 °F94 %29.78 in2.0 miCalmRainLight Rain
6:02 PM78.8 °F77.0 °F94 %29.78 in10.0 miCalmMostly Cloudy
6:35 PM78.8 °F77.0 °F94 %29.79 in4.0 miCalmRain-ThunderstormLight Rain
6:36 PM77.0 °F77.0 °F100 %29.79 in3.0 miEast (90°)3.5 mphRain-ThunderstormLight Rain
6:38 PM77.0 °F77.0 °F100 %29.80 in2.5 miEast (100°)4.6 mphRain-ThunderstormLight Rain
6:40 PM77.0 °F77.0 °F100 %29.80 in2.0 miEast (90°)4.6 mphRain-ThunderstormHeavy Rain
6:41 PM77.0 °F77.0 °F100 %29.79 in1.8 miEast (100°)5.8 mphRain-ThunderstormRain
6:43 PM78.8 °F77.0 °F94 %29.79 in1.2 miEast (100°)6.9 mphRain-ThunderstormRain
6:44 PM78.8 °F77.0 °F94 %29.79 in1.0 miEast (100°)5.8 mphRain-ThunderstormRain
6:45 PM78.8 °F77.0 °F94 %29.79 in0.8 miEast (100°)4.6 mphRainHeavy Rain
6:48 PM77.0 °F77.0 °F100 %29.78 in0.5 miCalmFog-RainHeavy Rain
6:52 PM77.0 °F77.0 °F100 %29.78 in0.8 miWest (260°)4.6 mphRainRain
6:54 PM77.0 °F77.0 °F100 %29.78 in1.0 miWNW (290°)3.5 mphRainRain
6:55 PM77.5 °F76.3 °F96 %29.78 in1.0 miNW (310°)3.5 mph0.31 inRainLight Rain
6:56 PM77.0 °F77.0 °F100 %29.78 in1.5 miNW (320°)4.6 mphRainLight Rain
6:57 PM77.0 °F77.0 °F100 %29.78 in2.0 miNNW (330°)5.8 mphRainLight Rain
6:58 PM77.0 °F77.0 °F100 %29.78 in4.0 miNW (320°)6.9 mphRainLight Rain
7:00 PM77.0 °F77.0 °F100 %29.78 in9.0 miNW (310°)6.9 mphRainLight Rain
7:01 PM77.0 °F75.2 °F94 %29.79 in10.0 miWNW (300°)6.9 mphMostly Cloudy
7:55 PM77.2 °F70.7 °F80 %29.79 in10.0 miNorth (350°)6.9 mph0.00 inClear
8:55 PM77.5 °F71.2 °F81 %29.81 in10.0 miCalmClear
9:55 PM78.1 °F73.8 °F86 %29.83 in10.0 miCalmClear
10:55 PM78.3 °F75.4 °F91 %29.82 in10.0 miCalmClear
11:55 PM77.5 °F71.2 °F81 %29.81 in10.0 miCalmClear
Hourly data recorded from PGUA, located miles away from Mangilao, Guam







STORIES FROM OUR PARTNERS